STARLINK-1063, 44768

Orbit data source: Space-Track

STARLINK-1063, 44768 is a payload satellite owned by SpaceX/Seattle (US) in LEO that was launched on Mon, 11 Nov 2019 UTC via an FALCON 9 launch vehicle from the Air Force Eastern Test Range (AFETR). Payload-class satellites include a variety of spacecraft equipped with specific instruments for various scientific and technological missions. These include communications satellites like Starlink; space stations such as the ISS; scientific satellites like the Hubble; Earth observation satellites from companies like Planet Labs, Umbra, and HawkEye 360; GPS; miniature CubeSats for education and research; and military/defense satellites.

Loading next visibility...
Identifier
44768, 2019-074BH
Orbit
LEO
Country
Flag of USUS
Related business
Manufacturer
SpaceX/Seattle
Mission
Operational Commercial Communications
Bus & Motor
STARLINK, Unknown motor
Mass
260 kg wet, ~248 kg dry
Launch date (UTC)
2019-11-11 (6 years ago)
Launch vehicle
FALCON 9
Launch site
Air Force Eastern Test Range (AFETR)
Object type
Payload
Rocket body
Debris
Shape & HBR
Box + 1 Pan, 10.1 m
Radar Cross Section
13.562 m², Large (>1 m²)

Expand to show TLE details & history
Last TLE update: 4 hours ago

TLE from 4 hours ago
0 STARLINK-1063
1 44768U 19074BH  26063.52711362 -.00630996  00000-0 -23461-1 0  9996
2 44768  53.1564 243.3733 0002701  33.2699 326.8471 15.29359231347524
Epoch: 2026-03-04T12:39Z
TLE epoch observation values (Epoch: 2026-03-04T12:39:02.616Z)
Latitude
-0.00002°
Longitude
-108.67816°
Altitude
477.075 km
Speed
7.629 km/s
True Right ascension
16h 13m 29s
True Declination
0° 00' 00"
Sunlit
Object was in daylight at epoch
Visualization orbit readout
Latitude
Unknown
Longitude
Unknown
Altitude
Unknown
Speed
Unknown
Apparent Right ascension
Unknown
Apparent Declination
Unknown
Sunlit
N/A
Visualization observer readout
Local Sidereal Time
20:19:31
Azimuth
Unknown
Elevation
Unknown
Doppler factor
Unknown
Orbital elements
Apogee altitude
479.835 km
Perigee altitude
476.132 km
Semi-major axis
6,856.121 km
Eccentricity
0.00027
Inclination
53.1564°
RAAN
243.3733°
Arg. of periapsis
33.2699°
True anomaly
326.83017°
Mean anomaly
326.8471°
Eccentric anomaly
326.83863°
Mean motion
3.82319 °/min
Orbital period
94.16 mins
BSTAR
-0.023461
Loading maneuver chart data...
Computing Atmospheric mass density...

Documentation

Showing up to 5 results
|